DW2819 Weather Reports


time (UTC)temp
C
wind
direction
speed
KPH
gust
KPH
rain 1hr
cm
rain 24hr
cm
rain mn
cm
humidity
%
barometer
mb
20210927074559 8 107 0.0 0.0 0.00 0.03 0.03 93 1029.3
20210927074055 8 107 0.0 0.0 0.00 0.03 0.03 93 1029.3
20210927073552 8 107 0.0 3.2 0.00 0.03 0.03 93 1029.2
20210927073050 8 107 0.0 4.8 0.00 0.03 0.03 93 1029.2
20210927072547 8 110 0.0 4.8 0.00 0.03 0.03 93 1029.2
20210927072049 8 113 0.0 0.0 0.00 0.03 0.03 93 1029.1
20210927071548 8 97 0.0 0.0 0.00 0.03 0.03 93 1029.1
20210927071046 8 97 0.0 3.2 0.00 0.03 0.03 93 1029.0
20210927070546 8 104 0.0 3.2 0.03 0.03 0.03 93 1029.0
20210927070046 8 106 0.0 4.8 0.03 0.03 0.03 93 1028.9
20210927065545 8 104 0.0 4.8 0.03 0.03 0.03 93 1028.9
20210927065044 8 341 0.0 0.0 0.03 0.03 0.03 93 1028.8
20210927064542 8 341 0.0 0.0 0.03 0.03 0.03 93 1028.8
20210927064040 7 341 0.0 0.0 0.03 0.03 0.03 93 1028.7
20210927063535 7 341 0.0 0.0 0.03 0.03 0.03 94 1028.7
20210927063033 7 341 0.0 0.0 0.03 0.03 0.03 93 1028.6
20210927062534 7 341 0.0 0.0 0.03 0.03 0.03 94 1028.6
20210927062032 7 341 0.0 0.0 0.03 0.03 0.03 93 1028.5
20210927061531 7 341 0.0 0.0 0.03 0.03 0.03 94 1028.6
20210927061033 6 341 0.0 0.0 0.03 0.03 0.03 94 1028.5
20210927060530 6 341 0.0 0.0 0.00 0.00 0.00 94 1028.5
20210927060030 6 341 0.0 0.0 0.00 0.00 0.00 94 1028.5
20210927055529 6 341 0.0 0.0 0.00 0.00 0.00 94 1028.4
20210927055031 6 341 0.0 0.0 0.00 0.00 0.00 94 1028.5
20210927054532 5 341 0.0 0.0 0.00 0.00 0.00 94 1028.4
20210927054035 5 341 0.0 0.0 0.00 0.00 0.00 94 1028.4
20210927053527 5 341 0.0 0.0 0.00 0.00 0.00 94 1028.4
20210927053030 5 341 0.0 0.0 0.00 0.00 0.00 94 1028.4
20210927052525 5 341 0.0 0.0 0.00 0.00 0.00 94 1028.3
20210927052024 5 341 0.0 0.0 0.00 0.00 0.00 94 1028.3
20210927051521 4 341 0.0 0.0 0.00 0.00 0.00 94 1028.4
20210927051021 4 341 0.0 0.0 0.00 0.00 0.00 94 1028.3
20210927050518 4 341 0.0 0.0 0.00 0.00 0.00 94 1028.3
20210927050015 4 341 0.0 0.0 0.00 0.00 0.00 94 1028.3
20210927045514 3 341 0.0 0.0 0.00 0.00 0.00 94 1028.2
20210927045016 3 341 0.0 0.0 0.00 0.00 0.00 94 1028.2
20210927044503 3 341 0.0 0.0 0.00 0.00 0.00 94 1028.1
20210927044005 3 341 0.0 0.0 0.00 0.00 0.00 94 1028.2
20210927043510 3 341 0.0 0.0 0.00 0.00 0.00 94 1028.1
20210927043002 3 341 0.0 0.0 0.00 0.00 0.00 94 1028.1
20210927042501 3 341 0.0 0.0 0.00 0.00 0.00 94 1028.0
20210927042000 3 341 0.0 0.0 0.00 0.00 0.00 95 1028.1
20210927041503 3 341 0.0 0.0 0.00 0.00 0.00 94 1028.0
20210927040956 3 341 0.0 0.0 0.00 0.00 0.00 94 1028.1
20210927040454 3 341 0.0 0.0 0.00 0.00 0.00 95 1028.1
20210927035952 3 341 0.0 0.0 0.00 0.00 0.00 95 1028.1
20210927035452 3 341 0.0 0.0 0.00 0.00 0.00 95 1028.1
20210927034950 3 341 0.0 0.0 0.00 0.00 0.00 95 1028.1
20210927034451 3 341 0.0 0.0 0.00 0.00 0.00 94 1028.0
20210927033948 3 341 0.0 0.0 0.00 0.00 0.00 94 1027.9
20210927033444 2 341 0.0 0.0 0.00 0.00 0.00 94 1027.9
20210927032945 2 341 0.0 0.0 0.00 0.00 0.00 94 1027.9
20210927032441 2 341 0.0 0.0 0.00 0.00 0.00 94 1027.9
20210927031942 2 341 0.0 0.0 0.00 0.00 0.00 94 1027.9
20210927031443 2 341 0.0 0.0 0.00 0.00 0.00 94 1027.9
20210927030940 2 341 0.0 0.0 0.00 0.00 0.00 94 1027.8
20210927030443 2 341 0.0 0.0 0.00 0.00 0.00 94 1027.7
20210927025942 2 341 0.0 0.0 0.00 0.00 0.00 94 1027.8
20210927025441 2 341 0.0 0.0 0.00 0.00 0.00 94 1027.7
20210927024938 2 341 0.0 0.0 0.00 0.00 0.00 94 1027.6
20210927024434 2 341 0.0 0.0 0.00 0.00 0.00 94 1027.6
20210927023934 2 341 0.0 0.0 0.00 0.00 0.00 94 1027.6
20210927023432 2 341 0.0 0.0 0.00 0.00 0.00 94 1027.5
20210927022933 2 341 0.0 0.0 0.00 0.00 0.00 94 1027.4
20210927022433 2 341 0.0 0.0 0.00 0.00 0.00 94 1027.4
20210927021931 2 341 0.0 0.0 0.00 0.00 0.00 94 1027.4
20210927021432 2 341 0.0 0.0 0.00 0.00 0.00 94 1027.4
20210927020928 2 341 0.0 0.0 0.00 0.00 0.00 94 1027.4
20210927020421 2 341 0.0 0.0 0.00 0.00 0.00 94 1027.4
20210927015918 2 341 0.0 0.0 0.00 0.00 0.00 94 1027.5
20210927015412 2 341 0.0 0.0 0.00 0.00 0.00 94 1027.4
20210927014910 2 341 0.0 0.0 0.00 0.00 0.00 94 1027.4
20210927014409 2 341 0.0 0.0 0.00 0.00 0.00 94 1027.3
20210927013905 2 341 0.0 0.0 0.00 0.00 0.00 94 1027.2
20210927013406 2 341 0.0 0.0 0.00 0.00 0.00 94 1027.3
20210927012902 2 341 0.0 0.0 0.00 0.00 0.00 94 1027.1
20210927012405 2 341 0.0 0.0 0.00 0.00 0.00 94 1027.0
20210927011902 2 341 0.0 0.0 0.00 0.00 0.00 94 1026.9
20210927011408 2 341 0.0 0.0 0.00 0.00 0.00 94 1027.0
20210927010903 2 341 0.0 0.0 0.00 0.00 0.00 94 1027.0
20210927010406 2 341 0.0 0.0 0.00 0.00 0.00 94 1026.9
20210927005903 2 341 0.0 0.0 0.00 0.00 0.00 94 1026.8
20210927005405 2 341 0.0 0.0 0.00 0.00 0.00 94 1026.7
20210927004904 2 341 0.0 0.0 0.00 0.00 0.00 94 1026.8
20210927004406 2 341 0.0 0.0 0.00 0.00 0.00 94 1026.7
20210927003903 2 341 0.0 0.0 0.00 0.00 0.00 94 1026.7
20210927003404 2 341 0.0 0.0 0.00 0.00 0.00 94 1026.6
20210927002901 2 341 0.0 0.0 0.00 0.00 0.00 94 1026.6
20210927002359 3 341 0.0 0.0 0.00 0.00 0.00 94 1026.5
20210927001857 3 341 0.0 0.0 0.00 0.00 0.00 94 1026.6
20210927001350 3 341 0.0 0.0 0.00 0.00 0.00 94 1026.5
20210927000848 3 341 0.0 0.0 0.00 0.00 0.00 94 1026.6
20210927000347 3 341 0.0 0.0 0.00 0.00 0.00 94 1026.6
20210926235844 3 341 0.0 0.0 0.00 0.00 0.00 94 1026.5
20210926235343 3 341 0.0 0.0 0.00 0.00 0.00 94 1026.5
20210926234840 3 341 0.0 0.0 0.00 0.00 0.00 94 1026.4
20210926234337 3 341 0.0 0.0 0.00 0.00 0.00 94 1026.4
20210926233840 3 341 0.0 0.0 0.00 0.00 0.00 94 1026.4
20210926233336 3 341 0.0 0.0 0.00 0.00 0.00 94 1026.3
20210926232836 3 341 0.0 0.0 0.00 0.00 0.00 94 1026.3
20210926232337 3 341 0.0 0.0 0.00 0.00 0.00 93 1026.3
20210926231835 3 341 0.0 0.0 0.00 0.00 0.00 93 1026.2
20210926231335 3 341 0.0 0.0 0.00 0.00 0.00 94 1026.2
20210926230831 3 341 0.0 0.0 0.00 0.00 0.00 94 1026.1
20210926230332 3 341 0.0 0.0 0.00 0.00 0.00 94 1026.2
20210926225832 3 341 0.0 0.0 0.00 0.00 0.00 94 1026.2
20210926225331 3 341 0.0 0.0 0.00 0.00 0.00 94 1026.1
20210926224833 3 341 0.0 0.0 0.00 0.00 0.00 93 1026.0
20210926224331 3 341 0.0 0.0 0.00 0.00 0.00 93 1026.1
20210926223831 3 341 0.0 0.0 0.00 0.00 0.00 93 1026.0
20210926223330 3 341 0.0 0.0 0.00 0.00 0.00 94 1026.0
20210926222832 3 341 0.0 0.0 0.00 0.00 0.00 94 1026.0
20210926222332 3 341 0.0 0.0 0.00 0.00 0.00 94 1025.9
20210926221830 3 341 0.0 0.0 0.00 0.00 0.00 94 1025.9
20210926221331 3 341 0.0 0.0 0.00 0.00 0.00 94 1025.8
20210926220832 3 341 0.0 0.0 0.00 0.00 0.00 93 1025.7
20210926220331 3 341 0.0 0.0 0.00 0.00 0.00 93 1025.7
20210926215831 3 341 0.0 0.0 0.00 0.00 0.00 93 1025.6
20210926215332 4 341 0.0 0.0 0.00 0.00 0.00 94 1025.5
20210926214831 4 341 0.0 0.0 0.00 0.00 0.00 94 1025.5
20210926214333 4 341 0.0 0.0 0.00 0.00 0.00 94 1025.5
20210926213830 4 341 0.0 0.0 0.00 0.00 0.00 93 1025.4
20210926213333 4 341 0.0 0.0 0.00 0.00 0.00 93 1025.4
20210926212831 4 341 0.0 0.0 0.00 0.00 0.00 93 1025.3
20210926212331 4 341 0.0 0.0 0.00 0.00 0.00 93 1025.2
20210926211832 4 341 0.0 0.0 0.00 0.00 0.00 93 1025.2
20210926211331 4 341 0.0 0.0 0.00 0.00 0.00 93 1025.2
20210926210831 4 341 0.0 0.0 0.00 0.00 0.00 93 1025.1
20210926210335 4 341 0.0 0.0 0.00 0.00 0.00 93 1025.1
20210926205830 4 341 0.0 0.0 0.00 0.00 0.00 93 1025.0
20210926205330 5 341 0.0 0.0 0.00 0.00 0.00 93 1025.0
20210926204831 5 341 0.0 0.0 0.00 0.00 0.00 93 1025.0
20210926204331 5 341 0.0 0.0 0.00 0.00 0.00 93 1025.0
20210926203831 5 341 0.0 0.0 0.00 0.00 0.00 93 1024.9
20210926203330 5 341 0.0 0.0 0.00 0.00 0.00 93 1024.9
20210926202829 5 341 0.0 0.0 0.00 0.00 0.00 93 1024.8
20210926202328 5 341 0.0 0.0 0.00 0.00 0.00 93 1024.7
20210926201822 5 341 0.0 0.0 0.00 0.00 0.00 93 1024.8
20210926201321 5 341 0.0 0.0 0.00 0.00 0.00 93 1024.7
20210926200820 5 341 0.0 0.0 0.00 0.00 0.00 93 1024.7
20210926200319 5 341 0.0 0.0 0.00 0.00 0.00 93 1024.7
20210926195817 5 341 0.0 0.0 0.00 0.00 0.00 93 1024.6
20210926195319 5 341 0.0 0.0 0.00 0.00 0.00 93 1024.6
20210926194814 5 341 0.0 0.0 0.00 0.00 0.00 93 1024.6
20210926194312 5 341 0.0 0.0 0.00 0.00 0.00 93 1024.6
20210926193805 5 341 0.0 0.0 0.00 0.00 0.00 93 1024.5
20210926193306 5 341 0.0 0.0 0.00 0.00 0.00 93 1024.5
20210926192803 5 341 0.0 0.0 0.00 0.00 0.00 93 1024.4
20210926192307 5 341 0.0 0.0 0.00 0.00 0.00 93 1024.3
20210926191803 6 341 0.0 0.0 0.00 0.00 0.00 92 1024.2
20210926191303 6 341 0.0 0.0 0.00 0.00 0.00 92 1024.2
20210926190759 6 341 0.0 0.0 0.00 0.00 0.00 92 1024.2
20210926190254 6 341 0.0 0.0 0.00 0.00 0.00 92 1024.1
20210926185756 6 341 0.0 0.0 0.00 0.00 0.00 92 1024.1
20210926185250 6 341 0.0 0.0 0.00 0.00 0.00 92 1024.1
20210926184750 6 341 0.0 0.0 0.00 0.00 0.00 92 1024.0
20210926184248 6 341 0.0 0.0 0.00 0.00 0.00 92 1023.9
20210926183751 6 341 0.0 0.0 0.00 0.00 0.00 92 1023.8
20210926183246 6 341 0.0 0.0 0.00 0.00 0.00 92 1023.7
20210926182741 6 341 0.0 0.0 0.00 0.00 0.00 92 1023.8
20210926182237 6 341 0.0 0.0 0.00 0.00 0.00 92 1023.7
20210926181736 6 341 0.0 0.0 0.00 0.00 0.00 92 1023.8
20210926181236 7 341 0.0 0.0 0.00 0.00 0.00 91 1023.7
20210926180734 7 341 0.0 0.0 0.00 0.00 0.00 92 1023.7
20210926180232 7 341 0.0 0.0 0.00 0.00 0.00 91 1023.6
20210926175731 7 341 0.0 0.0 0.00 0.00 0.00 91 1023.5
20210926175232 7 341 0.0 0.0 0.00 0.00 0.00 91 1023.6
20210926174730 7 341 0.0 0.0 0.00 0.00 0.00 91 1023.5
20210926174228 7 341 0.0 0.0 0.00 0.00 0.00 91 1023.4
20210926173730 7 341 0.0 0.0 0.00 0.00 0.00 91 1023.4
20210926173229 7 341 0.0 0.0 0.00 0.00 0.00 90 1023.3
20210926172728 8 341 0.0 0.0 0.00 0.00 0.00 90 1023.4
20210926172227 8 341 0.0 0.0 0.00 0.00 0.00 90 1023.3
20210926171900 8 341 0.0 0.0 0.00 0.00 0.00 89 1023.4
20210926171229 8 341 0.0 0.0 0.00 0.00 0.00 89 1023.4
20210926170727 8 341 0.0 0.0 0.00 0.00 0.00 89 1023.3
20210926170227 8 341 0.0 0.0 0.00 0.00 0.00 89 1023.2
20210926165728 8 341 0.0 0.0 0.00 0.00 0.00 88 1023.2
20210926165230 8 341 0.0 0.0 0.00 0.00 0.00 88 1023.1
20210926164723 9 341 0.0 0.0 0.00 0.00 0.00 88 1023.0
20210926164220 9 341 0.0 0.0 0.00 0.00 0.00 87 1023.0
20210926163718 9 341 0.0 0.0 0.00 0.00 0.00 87 1022.9
20210926163219 9 341 0.0 0.0 0.00 0.00 0.00 86 1023.0
20210926162713 10 341 0.0 0.0 0.00 0.00 0.00 86 1022.9
20210926162212 10 341 0.0 0.0 0.00 0.00 0.00 86 1022.8
20210926161712 10 341 0.0 0.0 0.00 0.00 0.00 86 1022.8
20210926161209 10 341 0.0 0.0 0.00 0.00 0.00 85 1022.9
20210926160706 10 341 0.0 0.0 0.00 0.00 0.00 85 1022.8
20210926160205 10 341 0.0 0.0 0.00 0.00 0.00 84 1022.7
20210926155706 10 341 0.0 0.0 0.00 0.00 0.00 84 1022.7
20210926155203 11 341 0.0 0.0 0.00 0.00 0.00 84 1022.7
20210926154704 11 341 0.0 0.0 0.00 0.00 0.00 83 1022.6
20210926154204 11 341 0.0 0.0 0.00 0.00 0.00 83 1022.7
20210926153701 11 341 0.0 0.0 0.00 0.00 0.00 82 1022.6
20210926153202 11 341 0.0 0.0 0.00 0.00 0.00 82 1022.6
20210926152702 11 341 0.0 0.0 0.00 0.00 0.00 82 1022.6
20210926152157 11 341 0.0 0.0 0.00 0.00 0.00 81 1022.5
20210926151656 11 341 0.0 0.0 0.00 0.00 0.00 81 1022.5
20210926151153 11 341 0.0 0.0 0.00 0.00 0.00 80 1022.5
20210926150655 12 341 0.0 0.0 0.00 0.00 0.00 80 1022.5
20210926150150 12 341 0.0 0.0 0.00 0.00 0.00 78 1022.4
20210926145651 12 341 0.0 3.2 0.00 0.00 0.00 77 1022.3
20210926145150 12 341 0.0 3.2 0.00 0.00 0.00 77 1022.3
20210926144650 12 341 0.0 0.0 0.00 0.00 0.00 76 1022.3
20210926144151 12 341 0.0 0.0 0.00 0.00 0.00 76 1022.1
20210926143643 12 341 0.0 0.0 0.00 0.00 0.00 75 1022.1
20210926143142 12 341 0.0 0.0 0.00 0.00 0.00 73 1022.1
20210926142642 13 340 0.0 0.0 0.00 0.00 0.00 72 1022.0
20210926142136 13 340 0.0 0.0 0.00 0.00 0.00 70 1021.9
20210926141635 13 340 0.0 4.8 0.00 0.00 0.00 69 1021.9
20210926141135 13 340 0.0 4.8 0.00 0.00 0.00 66 1021.7
20210926140636 13 350 0.0 0.0 0.00 0.00 0.00 68 1021.8
20210926140130 13 350 0.0 0.0 0.00 0.00 0.00 66 1021.6
20210926135632 13 350 0.0 3.2 0.00 0.00 0.00 66 1021.6
20210926135132 13 350 0.0 3.2 0.00 0.00 0.00 68 1021.6
20210926134631 13 348 0.0 0.0 0.00 0.00 0.00 70 1021.6
20210926134131 13 348 0.0 4.8 0.00 0.00 0.00 69 1021.5
20210926133633 13 348 0.0 4.8 0.00 0.00 0.00 69 1021.5
20210926133132 13 350 0.0 0.0 0.00 0.00 0.00 68 1021.4
20210926132631 13 350 0.0 0.0 0.00 0.00 0.00 66 1021.4
20210926132131 13 350 0.0 0.0 0.00 0.00 0.00 66 1021.4
20210926131632 13 350 0.0 0.0 0.00 0.00 0.00 67 1021.3
20210926131130 13 350 0.0 0.0 0.00 0.00 0.00 67 1021.2
20210926130632 13 350 0.0 4.8 0.00 0.00 0.00 70 1021.2
20210926130130 13 350 0.0 4.8 0.00 0.00 0.00 68 1021.1
20210926125633 13 343 0.0 0.0 0.00 0.00 0.00 69 1021.0
20210926125129 13 343 0.0 0.0 0.00 0.00 0.00 68 1021.0
20210926124622 13 343 0.0 0.0 0.00 0.00 0.00 66 1020.9
20210926124125 13 343 0.0 6.4 0.00 0.00 0.00 66 1021.0
20210926123622 13 343 0.0 6.4 0.00 0.00 0.00 64 1020.9
20210926123121 13 344 0.0 0.0 0.00 0.00 0.00 66 1020.9
20210926122623 13 344 0.0 3.2 0.00 0.00 0.00 65 1020.7
20210926122121 13 344 0.0 4.8 0.00 0.00 0.00 66 1020.8
20210926121621 13 344 0.0 4.8 0.00 0.00 0.00 66 1020.8
20210926121122 13 343 0.0 1.6 0.00 0.00 0.00 65 1020.7
20210926120622 13 343 0.0 3.2 0.00 0.00 0.00 67 1020.7
20210926120123 13 340 0.0 6.4 0.00 0.00 0.00 66 1020.6
20210926115621 13 338 0.0 6.4 0.00 0.00 0.00 66 1020.6
20210926115121 13 343 0.0 0.0 0.00 0.00 0.00 66 1020.6
20210926114621 13 13 0.0 3.2 0.00 0.00 0.00 68 1020.5
20210926114121 13 38 0.0 4.8 0.00 0.00 0.00 67 1020.5
20210926113622 13 31 0.0 4.8 0.00 0.00 0.00 68 1020.4
20210926113119 13 320 0.0 6.4 0.00 0.00 0.00 68 1020.3
20210926112616 13 303 0.0 6.4 0.00 0.00 0.00 66 1020.4
20210926112112 13 21 0.0 1.6 0.00 0.00 0.00 68 1020.3
20210926111610 13 21 0.0 4.8 0.00 0.00 0.00 67 1020.2
20210926111112 13 3 0.0 4.8 0.00 0.00 0.00 68 1020.2
20210926110603 13 305 0.0 3.2 0.00 0.00 0.00 68 1020.3
20210926110106 13 303 0.0 3.2 0.00 0.00 0.00 68 1020.1
20210926105604 13 347 0.0 1.6 0.00 0.00 0.00 69 1020.1
20210926105104 13 344 0.0 1.6 0.00 0.00 0.00 68 1020.1
20210926104606 13 351 0.0 1.6 0.00 0.00 0.00 68 1020.1
20210926104101 13 337 0.0 0.0 0.00 0.00 0.00 68 1020.0
20210926103602 13 337 0.0 4.8 0.00 0.00 0.00 69 1019.9
20210926103056 13 337 0.0 6.4 0.00 0.00 0.00 69 1019.9
20210926102554 13 324 0.0 6.4 0.00 0.00 0.00 69 1019.8
20210926102053 13 336 0.0 4.8 0.00 0.00 0.00 70 1019.9
20210926101547 13 343 0.0 6.4 0.00 0.00 0.00 70 1019.8
20210926101050 13 344 0.0 8.0 0.00 0.00 0.00 69 1019.7
20210926100548 13 354 0.0 8.0 0.00 0.00 0.00 69 1019.6
20210926100046 13 355 0.0 1.6 0.00 0.00 0.00 70 1019.7
20210926095544 13 348 0.0 1.6 0.00 0.00 0.00 70 1019.6
20210926095041 13 0 0.0 6.4 0.00 0.00 0.00 71 1019.6
20210926094542 13 353 0.0 6.4 0.00 0.00 0.00 70 1019.6
20210926094041 13 0 0.0 6.4 0.00 0.00 0.00 71 1019.6
20210926093534 13 355 0.0 6.4 0.00 0.00 0.00 72 1019.5
20210926093037 13 355 0.0 0.0 0.00 0.00 0.00 75 1019.5
20210926092531 12 355 0.0 0.0 0.00 0.00 0.00 75 1019.4
20210926092031 12 355 0.0 1.6 0.00 0.00 0.00 76 1019.3
20210926091536 12 355 0.0 6.4 0.00 0.00 0.00 75 1019.3
20210926091032 12 313 0.0 6.4 0.00 0.00 0.00 76 1019.2
20210926090531 12 351 0.0 1.6 0.00 0.00 0.00 76 1019.2
20210926090032 12 351 0.0 1.6 0.00 0.00 0.00 76 1019.1
20210926085530 12 331 0.0 1.6 0.00 0.00 0.00 78 1019.0
20210926085032 12 331 0.0 1.6 0.00 0.00 0.00 77 1019.0
20210926084534 12 341 0.0 8.0 0.00 0.00 0.00 77 1018.9
20210926084032 11 343 0.0 8.0 0.00 0.00 0.00 77 1018.8
20210926083531 11 337 0.0 4.8 0.00 0.00 0.00 78 1018.8
20210926083029 11 330 0.0 8.0 0.00 0.00 0.00 79 1018.7
20210926082520 11 330 0.0 8.0 0.00 0.00 0.00 79 1018.6
20210926082020 11 340 0.0 1.6 0.00 0.00 0.00 80 1018.5
20210926081519 11 338 0.0 11.3 0.00 0.00 0.00 80 1018.4
20210926081024 11 330 0.0 11.3 0.00 0.00 0.00 80 1018.3
20210926080526 11 326 0.0 1.6 0.00 0.00 0.00 80 1018.2
20210926080018 11 343 0.0 1.6 0.00 0.00 0.00 81 1018.1
20210926075521 10 350 0.0 4.8 0.00 0.00 0.00 82 1018.0
20210926075015 10 345 0.0 4.8 0.00 0.00 0.00 82 1018.0